PulseSat

PulseSat

MOLNIYA 3-47

Last updated on Feb. 14, 2019, 3:05 a.m. UTC

1 23642U 95042A   19043.70967872  .00001106  00000-0 -45103-1 0  9993
2 23642  63.1143 211.7003 7003684 289.7457  11.0523  2.01928386172451
UTC
Height (km)
Latitude
Longitude
Inclination
Orbital Period

Next 30 passes for location: Hong Kong

Rise time Rise Azimuth (degrees) Set time Set Azimuth (degrees) Duration Max altitude (degrees)

No matching passes for this satellites

PulseSat

PulseSat is the new satellites software and hardware trackering solution by Pulsely.
Satellite Two Line Element Set source: US Air Force Space Command

Download PulseSat for iOS
© 2017 Pulsely Limited